Lovelock, NV

6:04 PM PDT on May 23, 2017 (GMT -0700)
Derby

Weather History for KLOL - February, 2014

Change the Weather History Date:

Tuesday, February 18, 2014

  Actual Average Record
Temperature  
Mean Temperature 38 °F -  
Max Temperature 55 °F 50 °F 66 °F (1981)
Min Temperature 21 °F 23 °F 8 °F (2013)
Degree Days  
Heating Degree Days 27    
Moisture  
Dew Point 16 °F    
Average Humidity 36    
Maximum Humidity 68    
Minimum Humidity 19    
Precipitation  
Precipitation 0.00 in - - ()
Sea Level Pressure  
Sea Level Pressure 30.07 in    
Wind  
Wind Speed 4 mph (South)    
Max Wind Speed 13 mph    
Max Gust Speed 18 mph    
Visibility 9 miles    
Events      
Averages and records for this station are not official NWS values.
T = Trace of Precipitation, MM = Missing Value Source: NWS Daily Summary

Daily Weather History Graph

Daily Weather History Graph

Search for Another Location

Airport or City:

Trip Planner

Search our weather history database for the weather conditions in past years. The results will help you decide how hot, cold, wet, or windy it might be!

Date:

Astronomy

Feb. 18, 2014 Rise Set
Actual Time 6:43 AM PST 5:33 PM PST
Civil Twilight 6:15 AM PST 6:01 PM PST
Nautical Twilight 5:43 AM PST 6:33 PM PST
Astronomical Twilight 5:12 AM PST 7:04 PM PST
Moon 9:32 PM PST (2/18) 8:17 AM PST (2/18)
Length of Visible Light 11h 45m
Length of Day
10h 50m
Waning Gibbous, 86% of the Moon is Illuminated
Feb 18
Waning Gibbous
Feb 22
Last Quarter
Mar 1
New
Mar 8
First Quarter
Mar 16
Full

Hourly Weather History & Observations

Time (PST) Temp. Windchill Dew Point Humidity Pressure Visibility Wind Dir Wind Speed Gust Speed Precip Events Conditions
12:53 AM 36.0 °F - 15.1 °F 43% 30.11 in 10.0 mi Calm Calm - N/A   Clear
1:53 AM 33.1 °F 26.1 °F 14.0 °F 46% 30.12 in 10.0 mi SSW 8.1 mph - N/A   Clear
2:53 AM 32.0 °F 27.5 °F 14.0 °F 48% 30.12 in 10.0 mi SSE 4.6 mph - N/A   Clear
3:53 AM 28.9 °F - 14.0 °F 54% 30.13 in 10.0 mi Calm Calm - N/A   Clear
4:53 AM 28.0 °F 20.0 °F 14.0 °F 56% 30.15 in 10.0 mi NE 8.1 mph - N/A   Clear
5:53 AM 24.1 °F - 12.9 °F 62% 30.18 in 10.0 mi Calm Calm - N/A   Clear
6:53 AM 21.0 °F 14.6 °F 12.0 °F 68% 30.22 in 10.0 mi East 4.6 mph - N/A   Clear
7:53 AM 28.9 °F - 17.1 °F 61% 30.21 in 10.0 mi Calm Calm - N/A   Scattered Clouds
8:53 AM 37.0 °F - 21.0 °F 52% 30.20 in 10.0 mi Calm Calm - N/A   Mostly Cloudy
9:53 AM 44.1 °F 41.5 °F 17.1 °F 34% 30.21 in 10.0 mi SSE 4.6 mph - N/A   Overcast
10:53 AM 46.0 °F 43.9 °F 18.0 °F 33% 30.21 in 10.0 mi Variable 4.6 mph - N/A   Partly Cloudy
11:53 AM 50.0 °F - 15.1 °F 25% 30.17 in 10.0 mi South 3.5 mph - N/A   Clear
12:53 PM 52.0 °F - 16.0 °F 24% 30.12 in 10.0 mi South 6.9 mph - N/A   Clear
1:53 PM 53.1 °F - 16.0 °F 23% 30.09 in 10.0 mi South 6.9 mph - N/A   Clear
2:53 PM 55.9 °F - 15.1 °F 20% 30.06 in 10.0 mi South 4.6 mph - N/A   Clear
3:53 PM 55.9 °F - 14.0 °F 19% 30.04 in 10.0 mi South 6.9 mph - N/A   Clear
4:53 PM 54.0 °F - 15.1 °F 22% 30.03 in 10.0 mi SSE 3.5 mph - N/A   Clear
5:53 PM 48.9 °F - 18.0 °F 29% 30.04 in 10.0 mi Calm Calm - N/A   Clear
6:53 PM 48.0 °F - 19.0 °F 32% 30.04 in 10.0 mi Calm Calm - N/A   Clear
7:53 PM 42.1 °F - 21.0 °F 43% 30.04 in 10.0 mi Calm Calm - N/A   Clear
8:53 PM 45.0 °F 41.8 °F 19.0 °F 36% 30.02 in 10.0 mi South 5.8 mph - N/A   Clear
9:53 PM 53.1 °F - 17.1 °F 24% 29.96 in 10.0 mi SSW 12.7 mph - N/A   Clear
10:53 PM 51.1 °F - 12.9 °F 22% 29.91 in 10.0 mi SSW 5.8 mph 18.4 mph N/A   Clear
11:09 PM 48.0 °F - 14.0 °F 26% 29.92 in 3.0 mi South 10.4 mph - N/A   Haze
11:15 PM 48.9 °F - 14.0 °F 25% 29.92 in 2.5 mi South 10.4 mph - N/A   Haze
11:22 PM 48.9 °F - 15.1 °F 26% 29.91 in 4.0 mi SSE 8.1 mph - N/A   Haze
11:53 PM 46.0 °F - 17.1 °F 31% 29.88 in 10.0 mi Calm Calm - N/A   Clear